Location: Newark
(45.6667°N, 4.7833°E)
Time: 21:00:07
(UTC+00:00)

Envisat - Visible Passes

Search period start: 20 September 2020 00:00
Search period end: 30 September 2020 00:00
Orbit: 764 x 766 km, 98.1° (Epoch: 20 September)

Date Brightness Start Highest point End Pass type
(mag) Time Alt. Az. Time Alt. Az. Time Alt. Az.
20 Sep 5.6 04:56:40 10° NE 05:00:56 27° E 05:05:11 10° SSE visible
21 Sep 6.4 04:21:36 10° ENE 04:23:43 12° E 04:25:49 10° ESE visible
22 Sep 6.3 18:20:04 10° WSW 18:22:55 15° W 18:25:48 10° NW visible
23 Sep 5.9 04:45:36 10° NE 04:49:29 21° E 04:53:19 10° SE visible
25 Sep 6.1 18:07:54 10° SW 18:11:26 19° W 18:14:59 10° NW visible
26 Sep 6.1 04:34:40 10° NE 04:37:59 17° E 04:41:17 10° SE visible
27 Sep 6.7 18:36:07 10° W 18:37:12 11° W 18:38:18 10° WNW visible
28 Sep 5.4 04:59:17 10° NE 05:03:41 29° E 05:08:04 10° SSE visible
28 Sep 5.9 17:55:56 10° SW 17:59:57 23° W 18:04:00 10° NW visible
29 Sep 6.3 04:23:58 10° ENE 04:26:29 14° E 04:28:59 10° ESE visible
